Lawton, OK

7:35 PM CST on February 09, 2016 (GMT -0600)
Lawton-Fort Sill Regional

Weather History for KLAW - November, 2013

Change the Weather History Date:

Friday, November 8, 2013

  Actual Average Record
Temperature  
Mean Temperature 50 °F -  
Max Temperature 66 °F 64 °F 88 °F (1980)
Min Temperature 34 °F 40 °F 21 °F (1991)
Degree Days  
Heating Degree Days 15    
Moisture  
Dew Point 33 °F    
Average Humidity 55    
Maximum Humidity 92    
Minimum Humidity 23    
Precipitation  
Precipitation 0.00 in - - ()
Sea Level Pressure  
Sea Level Pressure 30.20 in    
Wind  
Wind Speed 7 mph (South)    
Max Wind Speed 23 mph    
Max Gust Speed 31 mph    
Visibility 10 miles    
Events      
Averages and records for this station are not official NWS values.
T = Trace of Precipitation, MM = Missing Value Source: NWS Daily Summary

Daily Weather History Graph

Daily Weather History Graph

Search for Another Location

Airport or City:

Trip Planner

Search our weather history database for the weather conditions in past years. The results will help you decide how hot, cold, wet, or windy it might be!

Date:

Astronomy

Nov. 08, 2013 Rise Set
Actual Time 7:00 AM CST 5:33 PM CST
Civil Twilight 6:34 AM CST 6:00 PM CST
Nautical Twilight 6:04 AM CST 6:30 PM CST
Astronomical Twilight 5:34 AM CST 6:59 PM CST
Moon 11:57 AM CST (11/8) 10:55 PM CST (11/8)
Length of Visible Light 11h 25m
Length of Day
10h 32m
Waxing Crescent, 33% of the Moon is Illuminated
Nov 8
Waxing Crescent
Nov 9
First Quarter
Nov 17
Full
Nov 25
Last Quarter
Dec 2
New

Hourly Weather History & Observations

Time (CST) Temp. Windchill Dew Point Humidity Pressure Visibility Wind Dir Wind Speed Gust Speed Precip Events Conditions
12:53 AM 43.0 °F 41.3 °F 35.1 °F 74% 30.35 in 10.0 mi SSE 3.5 mph - N/A   Clear
1:53 AM 42.1 °F - 35.1 °F 76% 30.34 in 10.0 mi Calm Calm - N/A   Clear
2:53 AM 41.0 °F - 35.1 °F 79% 30.33 in 10.0 mi Calm Calm - N/A   Clear
3:53 AM 37.9 °F - 33.1 °F 83% 30.32 in 10.0 mi Calm Calm - N/A   Clear
4:53 AM 34.0 °F - 32.0 °F 92% 30.32 in 10.0 mi Calm Calm - N/A   Clear
5:53 AM 36.0 °F - 32.0 °F 86% 30.31 in 10.0 mi Calm Calm - N/A   Clear
6:53 AM 37.0 °F 34.5 °F 33.1 °F 86% 30.31 in 10.0 mi SE 3.5 mph - N/A   Clear
7:53 AM 41.0 °F - 36.0 °F 82% 30.30 in 10.0 mi Calm Calm - N/A   Clear
8:53 AM 50.0 °F - 37.9 °F 63% 30.30 in 10.0 mi SSW 8.1 mph - N/A   Clear
9:53 AM 55.9 °F - 39.0 °F 53% 30.29 in 10.0 mi South 15.0 mph 18.4 mph N/A   Clear
10:53 AM 59.0 °F - 35.1 °F 41% 30.25 in 10.0 mi South 16.1 mph 23.0 mph N/A   Clear
11:53 AM 64.9 °F - 30.0 °F 27% 30.21 in 10.0 mi South 21.9 mph 29.9 mph N/A   Clear
12:53 PM 66.0 °F - 28.0 °F 24% 30.17 in 10.0 mi South 21.9 mph 31.1 mph N/A   Clear
1:53 PM 66.9 °F - 28.0 °F 23% 30.13 in 10.0 mi SSW 18.4 mph 27.6 mph N/A   Clear
2:53 PM 66.0 °F - 28.0 °F 24% 30.11 in 10.0 mi South 23.0 mph 31.1 mph N/A   Clear
3:53 PM 66.0 °F - 28.9 °F 25% 30.09 in 10.0 mi South 16.1 mph 26.5 mph N/A   Clear
4:53 PM 61.0 °F - 32.0 °F 34% 30.09 in 10.0 mi South 15.0 mph 23.0 mph N/A   Clear
5:53 PM 57.9 °F - 35.1 °F 42% 30.09 in 10.0 mi SSE 8.1 mph - N/A   Clear
6:53 PM 55.9 °F - 35.1 °F 45% 30.08 in 10.0 mi South 13.8 mph - N/A   Clear
7:53 PM 55.9 °F - 32.0 °F 40% 30.08 in 10.0 mi South 12.7 mph - N/A   Clear
8:53 PM 55.9 °F - 32.0 °F 40% 30.08 in 10.0 mi South 10.4 mph - N/A   Clear
9:53 PM 54.0 °F - 35.1 °F 49% 30.10 in 10.0 mi SSW 11.5 mph 19.6 mph N/A   Clear
10:53 PM 51.1 °F - 37.0 °F 59% 30.10 in 10.0 mi South 4.6 mph - N/A   Clear
11:53 PM 48.0 °F - 37.9 °F 68% 30.09 in 10.0 mi Calm Calm - N/A   Clear